Avalon, Victoria

1:07 PM AEST on September 27, 2016 (GMT +1000)
Avalon

Weather History for YMAV - August, 2013

Change the Weather History Date:

Tuesday, August 27, 2013

  Actual Average (YMML) Record (YMML)
Temperature  
Mean Temperature 56 °F -  
Max Temperature 70 °F 59 °F 77 °F (2007)
Min Temperature 41 °F 42 °F 35 °F (2005)
Degree Days  
Heating Degree Days 10    
Growing Degree Days 6 (Base 50)    
Moisture  
Dew Point 47 °F    
Average Humidity 76    
Maximum Humidity 100    
Minimum Humidity 39    
Precipitation  
Precipitation 0.00 in - - ()
Sea Level Pressure  
Sea Level Pressure 30.08 in    
Wind  
Wind Speed 5 mph ()    
Max Wind Speed 15 mph    
Max Gust Speed -    
Visibility 6.2 miles    
Events      
Averages and records for this station are not official NWS values.
T = Trace of Precipitation, MM = Missing Value Source: Averaged Metar Reports

Daily Weather History Graph

Daily Weather History Graph

Search for Another Location

Airport or City:

Trip Planner

Search our weather history database for the weather conditions in past years. The results will help you decide how hot, cold, wet, or windy it might be!

Date:

Astronomy

Aug. 27, 2013 Rise Set
Actual Time 6:51 AM AEST 5:56 PM AEST
Civil Twilight 6:24 AM AEST 6:23 PM AEST
Nautical Twilight 5:54 AM AEST 6:53 PM AEST
Astronomical Twilight 5:23 AM AEST 7:24 PM AEST
Moon No Moon Rise 10:10 AM AEST
Length of Visible Light 11h 58m
Length of Day
11h 04m
Waning Gibbous, 63% of the Moon is Illuminated
Aug 27
Waning Gibbous
Aug 28
Last Quarter
Sep 5
New
Sep 13
First Quarter
Sep 19
Full

Hourly Weather History & Observations

Time (AEST) Temp. Windchill Dew Point Humidity Pressure Visibility Wind Dir Wind Speed Gust Speed Precip Events Conditions
12:00 AM 51 °F - 47 °F 82% 30.19 in - North 5.8 mph - -   Overcast
12:00 AM 51.8 °F - 46.4 °F 82% 30.18 in 6.2 mi North 5.8 mph - N/A   Overcast
12:30 AM 50.0 °F - 44.6 °F 82% 30.18 in 6.2 mi North 3.5 mph - N/A   Scattered Clouds
1:00 AM 46.4 °F 44.3 °F 42.8 °F 87% 30.18 in 6.2 mi NNW 4.6 mph - N/A   Unknown
1:30 AM 44.6 °F - 41.0 °F 87% 30.18 in 6.2 mi Calm Calm - N/A   Scattered Clouds
2:00 AM 46.4 °F 45.2 °F 42.8 °F 87% 30.15 in 6.2 mi North 3.5 mph - N/A   Mostly Cloudy
2:30 AM 46.4 °F 42.9 °F 44.6 °F 93% 30.15 in 6.2 mi North 6.9 mph - N/A   Scattered Clouds
3:00 AM 45 °F - 43 °F 90% 30.16 in - North 6.9 mph - -   Overcast
3:00 AM 44.6 °F 40.7 °F 42.8 °F 93% 30.15 in 6.2 mi North 6.9 mph - N/A   Scattered Clouds
3:30 AM 44.6 °F 40.7 °F 42.8 °F 93% 30.12 in 6.2 mi NNW 6.9 mph - N/A   Overcast
4:00 AM 44.6 °F 42.2 °F 42.8 °F 93% 30.12 in 6.2 mi North 4.6 mph - N/A   Mostly Cloudy
4:30 AM 41.0 °F 39.0 °F 39.2 °F 93% 30.12 in 6.2 mi WSW 3.5 mph - N/A   Unknown
5:00 AM 42.8 °F 41.1 °F 41.0 °F 93% 30.12 in 6.2 mi East 3.5 mph - N/A   Unknown
5:30 AM 42.8 °F 41.1 °F 42.8 °F 100% 30.12 in 6.2 mi SE 3.5 mph - N/A   Unknown
6:00 AM 42.8 °F 39.3 °F 41.0 °F 93% 30.12 in 6.2 mi NE 5.8 mph - N/A   Unknown
6:30 AM 41.0 °F 39.0 °F 39.2 °F 93% 30.12 in 6.2 mi North 3.5 mph - N/A   Unknown
7:00 AM 41.0 °F 39.0 °F 39.2 °F 93% 30.12 in 6.2 mi North 3.5 mph - N/A   Unknown
7:30 AM 42.8 °F 40.1 °F 41.0 °F 93% 30.12 in 6.2 mi NNE 4.6 mph - N/A   Unknown
8:00 AM 44.6 °F 42.2 °F 44.6 °F 100% 30.12 in 6.2 mi NNW 4.6 mph - N/A   Scattered Clouds
8:30 AM 46.4 °F - 44.6 °F 93% 30.12 in 6.2 mi Calm Calm - N/A   Mostly Cloudy
9:00 AM 51 °F - 49 °F 88% 30.14 in - Calm Calm - -  
9:00 AM 50.0 °F - 48.2 °F 94% 30.12 in 6.2 mi Calm Calm - N/A   Overcast
9:30 AM 53.6 °F - 48.2 °F 82% 30.12 in 6.2 mi Calm Calm - N/A   Mostly Cloudy
10:00 AM 55.4 °F - 48.2 °F 77% 30.09 in 6.2 mi SSE 5.8 mph - N/A   Mostly Cloudy
10:30 AM 55.4 °F - 50.0 °F 82% 30.09 in 6.2 mi ESE 6.9 mph - N/A   Mostly Cloudy
11:00 AM 57.2 °F - 51.8 °F 82% 30.09 in 6.2 mi SSE 5.8 mph - N/A   Overcast
11:30 AM 59.0 °F - 53.6 °F 82% 30.06 in 6.2 mi SSE 5.8 mph - N/A   Overcast
12:00 PM 64.4 °F - 53.6 °F 68% 30.06 in 6.2 mi ESE 3.5 mph - N/A   Overcast
12:30 PM 68.0 °F - 53.6 °F 60% 30.04 in 6.2 mi West 4.6 mph - N/A   Mostly Cloudy
1:00 PM 68.0 °F - 51.8 °F 56% 30.04 in 6.2 mi North 11.5 mph - N/A   Overcast
1:30 PM 68.0 °F - 50.0 °F 52% 30.01 in 6.2 mi North 11.5 mph - N/A   Overcast
2:00 PM 69.8 °F - 51.8 °F 53% 30.01 in 6.2 mi North 12.7 mph - N/A   Mostly Cloudy
2:30 PM 68.0 °F - 48.2 °F 49% 30.01 in 6.2 mi North 11.5 mph - N/A   Mostly Cloudy
3:00 PM 70 °F - 50 °F 39% 30.01 in - North 11.5 mph - -   Overcast
3:00 PM 69.8 °F - 50.0 °F 49% 30.01 in 6.2 mi North 11.5 mph - N/A   Mostly Cloudy
3:30 PM 69.8 °F - 51.8 °F 53% 29.98 in 6.2 mi North 10.4 mph - N/A   Mostly Cloudy
4:00 PM 68.0 °F - 46.4 °F 46% 29.98 in 6.2 mi NNW 15.0 mph - N/A   Overcast
4:30 PM 68.0 °F - 48.2 °F 49% 30.01 in 6.2 mi NW 11.5 mph - N/A   Overcast
5:00 PM 66.2 °F - 46.4 °F 49% 30.01 in 6.2 mi West 11.5 mph - N/A   Overcast
5:30 PM 64.4 °F - 48.2 °F 56% 30.01 in 6.2 mi WNW 9.2 mph - N/A   Overcast
6:00 PM 62 °F - 48 °F 50% 30.02 in - NW 4.6 mph - -   Overcast
6:00 PM 62.6 °F - 48.2 °F 59% 30.01 in 6.2 mi NW 4.6 mph - N/A   Overcast
6:30 PM 59.0 °F - 48.2 °F 67% 30.01 in 6.2 mi NNW 5.8 mph - N/A   Overcast
7:00 PM 59.0 °F - 48.2 °F 67% 30.04 in 6.2 mi NNW 5.8 mph - N/A   Overcast
7:30 PM 59.0 °F - 50.0 °F 72% 30.04 in 6.2 mi NW 5.8 mph - N/A   Overcast
8:00 PM 59.0 °F - 50.0 °F 72% 30.04 in 6.2 mi WNW 6.9 mph - N/A   Overcast
8:30 PM 59.0 °F - 50.0 °F 72% 30.04 in 6.2 mi NW 6.9 mph - N/A   Overcast
9:00 PM 57 °F - 49 °F 67% 30.06 in - NNW 4.6 mph - -  
9:00 PM 57.2 °F - 50.0 °F 77% 30.04 in 6.2 mi NNW 4.6 mph - N/A   Scattered Clouds
9:30 PM 57.2 °F - 48.2 °F 72% 30.06 in 6.2 mi NNW 4.6 mph - N/A   Unknown
10:00 PM 51.8 °F - 46.4 °F 82% 30.06 in 6.2 mi SSW 6.9 mph - N/A   Unknown
10:30 PM 51.8 °F - 48.2 °F 88% 30.06 in 6.2 mi Calm Calm - N/A   Unknown
11:00 PM 51.8 °F - 48.2 °F 88% 30.06 in 6.2 mi Calm Calm - N/A   Scattered Clouds
11:30 PM 51.8 °F - 50.0 °F 94% 30.06 in 6.2 mi South 3.5 mph - N/A   Overcast